TimeCST,TemperatureF,Dew PointF,Humidity,Sea Level PressureIn,VisibilityMPH,Wind Direction,Wind SpeedMPH,Gust SpeedMPH,PrecipitationIn,Events,Conditions,WindDirDegrees,DateUTC
12:53 AM,60.1,59.0,96,30.19,10.0,ESE,4.6,-,N/A,,Clear,120,2012-12-02 06:53:00
1:53 AM,57.9,57.9,100,30.20,5.0,East,3.5,-,N/A,,Partly Cloudy,100,2012-12-02 07:53:00
2:53 AM,59.0,57.9,96,30.20,7.0,East,4.6,-,N/A,,Clear,90,2012-12-02 08:53:00
3:53 AM,57.9,57.9,100,30.21,3.0,ENE,3.5,-,N/A,,Clear,70,2012-12-02 09:53:00
4:12 AM,57.2,57.2,100,30.21,2.5,Calm,Calm,-,N/A,,Clear,0,2012-12-02 10:12:00
4:20 AM,57.2,57.2,100,30.22,4.0,Calm,Calm,-,N/A,,Clear,0,2012-12-02 10:20:00
4:53 AM,57.0,57.0,100,30.22,5.0,Calm,Calm,-,N/A,,Clear,0,2012-12-02 10:53:00
5:53 AM,57.0,55.9,96,30.22,6.0,East,3.5,-,N/A,,Clear,80,2012-12-02 11:53:00
6:53 AM,57.0,55.9,96,30.24,4.0,East,3.5,-,N/A,,Clear,100,2012-12-02 12:53:00
7:53 AM,61.0,60.1,97,30.25,9.0,ESE,4.6,-,N/A,,Clear,120,2012-12-02 13:53:00
8:53 AM,66.0,62.1,87,30.26,10.0,SE,6.9,-,N/A,,Clear,130,2012-12-02 14:53:00
9:53 AM,72.0,63.0,73,30.27,10.0,ESE,6.9,-,N/A,,Clear,120,2012-12-02 15:53:00
10:53 AM,75.0,62.1,64,30.25,10.0,SSE,8.1,-,N/A,,Clear,150,2012-12-02 16:53:00
11:53 AM,77.0,60.1,56,30.22,10.0,ESE,8.1,-,N/A,,Clear,120,2012-12-02 17:53:00
12:53 PM,79.0,57.0,47,30.19,10.0,South,10.4,-,N/A,,Scattered Clouds,190,2012-12-02 18:53:00
1:53 PM,79.0,57.9,48,30.17,10.0,SSE,10.4,-,N/A,,Scattered Clouds,150,2012-12-02 19:53:00
2:53 PM,77.0,57.9,52,30.16,10.0,SE,5.8,-,N/A,,Scattered Clouds,140,2012-12-02 20:53:00
3:53 PM,78.1,57.9,50,30.16,10.0,SE,8.1,-,N/A,,Partly Cloudy,130,2012-12-02 21:53:00
4:53 PM,73.9,59.0,59,30.17,10.0,SSE,5.8,-,N/A,,Partly Cloudy,150,2012-12-02 22:53:00
5:53 PM,71.1,62.1,73,30.18,10.0,ESE,9.2,-,N/A,,Mostly Cloudy,110,2012-12-02 23:53:00
6:53 PM,68.0,61.0,78,30.19,10.0,SE,6.9,-,N/A,,Clear,130,2012-12-03 00:53:00
7:35 PM,68.0,62.6,83,30.20,10.0,SE,5.8,-,N/A,,Mostly Cloudy,130,2012-12-03 01:35:00
7:53 PM,68.0,62.1,81,30.20,10.0,SE,5.8,-,0.00,Rain,Light Rain,140,2012-12-03 01:53:00
8:53 PM,64.9,61.0,87,30.20,10.0,SE,5.8,-,0.00,,Partly Cloudy,130,2012-12-03 02:53:00
9:53 PM,63.0,60.1,90,30.20,10.0,ESE,6.9,-,N/A,,Clear,120,2012-12-03 03:53:00
10:53 PM,62.1,59.0,90,30.20,10.0,ESE,4.6,-,N/A,,Clear,110,2012-12-03 04:53:00
11:53 PM,59.0,57.9,96,30.19,10.0,ESE,4.6,-,N/A,,Clear,110,2012-12-03 05:53:00